• In Portugal
  • List of Countries
  • For 7 days
  • Water Temperature
  • Satellite Maps
  • Weather Map
  • Weather Widgets
  • user-avatar
    Login

    Hourly Weather Manama

    Today, 23 January, Tuesday

    Time Temperature Precipitation Wind Pressure Humidity
    00:00 +15°C° 0 mm 1 mps 763 mmHg 69%
    01:00 +15°C° 0 mm 1 mps 763 mmHg 69%
    02:00 +15°C° 0 mm 1 mps 763 mmHg 69%
    03:00 +14°C° 0 mm 1 mps 762 mmHg 72%
    04:00 +14°C° 0 mm 1 mps 763 mmHg 70%
    05:00 +14°C° 0 mm 1 mps 763 mmHg 69%
    06:00 +14°C° 0 mm 1 mps 763 mmHg 68%
    07:00 +16°C° 0 mm 2 mps 763 mmHg 62%
    08:00 +17°C° 0 mm 2 mps 763 mmHg 56%
    09:00 +18°C° 0 mm 2 mps 763 mmHg 47%
    10:00 +19°C° 0 mm 3 mps 763 mmHg 42%
    11:00 +20°C° 0 mm 3 mps 762 mmHg 38%
    12:00 +21°C° 0 mm 3 mps 762 mmHg 33%
    13:00 +21°C° 0 mm 3 mps 761 mmHg 32%
    14:00 +22°C° 0 mm 3 mps 761 mmHg 31%
    15:00 +22°C° 0 mm 4 mps 760 mmHg 29%
    16:00 +22°C° 0 mm 4 mps 760 mmHg 34%
    17:00 +21°C° 0 mm 4 mps 760 mmHg 38%
    18:00 +20°C° 0 mm 4 mps 760 mmHg 42%
    19:00 +20°C° 0 mm 5 mps 761 mmHg 42%
    20:00 +20°C° 0 mm 5 mps 761 mmHg 42%
    21:00 +20°C° 0 mm 5 mps 761 mmHg 42%
    22:00 +20°C° 0 mm 5 mps 761 mmHg 42%
    23:00 +20°C° 0 mm 6 mps 760 mmHg 42%

    Tomorrow, 24 January, Wednesday

    Time Temperature Precipitation Wind Pressure Humidity
    00:00 +20°C° 0 mm 6 mps 760 mmHg 42%
    01:00 +20°C° 0 mm 6 mps 760 mmHg 39%
    02:00 +19°C° 0 mm 5 mps 760 mmHg 37%
    03:00 +19°C° 0 mm 5 mps 760 mmHg 34%
    04:00 +19°C° 0 mm 5 mps 760 mmHg 32%
    05:00 +19°C° 0 mm 4 mps 760 mmHg 30%
    06:00 +18°C° 0 mm 4 mps 761 mmHg 28%
    07:00 +19°C° 0 mm 4 mps 761 mmHg 26%
    08:00 +20°C° 0 mm 5 mps 761 mmHg 25%
    09:00 +21°C° 0 mm 5 mps 762 mmHg 23%
    10:00 +22°C° 0 mm 5 mps 761 mmHg 21%
    11:00 +23°C° 0 mm 4 mps 761 mmHg 19%
    12:00 +26°C° 0 mm 4 mps 761 mmHg 17%
    13:00 +26°C° 0 mm 3 mps 761 mmHg 17%
    14:00 +26°C° 0 mm 3 mps 760 mmHg 17%
    15:00 +27°C° 0 mm 2 mps 760 mmHg 17%
    16:00 +26°C° 0 mm 3 mps 760 mmHg 20%
    17:00 +25°C° 0 mm 3 mps 760 mmHg 22%
    18:00 +23°C° 0 mm 4 mps 760 mmHg 25%
    19:00 +23°C° 0 mm 4 mps 761 mmHg 26%
    20:00 +23°C° 0 mm 4 mps 761 mmHg 28%
    21:00 +22°C° 0 mm 4 mps 761 mmHg 29%
    22:00 +22°C° 0 mm 4 mps 761 mmHg 32%
    23:00 +22°C° 0 mm 3 mps 761 mmHg 34%

    Day after tomorrow, 25 January, Thursday

    Time Temperature Precipitation Wind Pressure Humidity
    00:00 +21°C° 0 mm 3 mps 761 mmHg 37%
    01:00 +21°C° 0 mm 3 mps 761 mmHg 38%
    02:00 +21°C° 0 mm 2 mps 760 mmHg 39%
    03:00 +20°C° 0 mm 2 mps 760 mmHg 40%
    04:00 +20°C° 0 mm 2 mps 760 mmHg 39%
    05:00 +19°C° 0 mm 2 mps 760 mmHg 39%
    06:00 +19°C° 0 mm 2 mps 761 mmHg 38%
    07:00 +20°C° 0 mm 2 mps 761 mmHg 34%
    08:00 +21°C° 0 mm 2 mps 761 mmHg 30%
    09:00 +24°C° 0 mm 2 mps 762 mmHg 26%
    10:00 +24°C° 0 mm 2 mps 761 mmHg 24%
    11:00 +25°C° 0 mm 2 mps 761 mmHg 22%
    12:00 +26°C° 0 mm 2 mps 761 mmHg 19%
    13:00 +26°C° 0 mm 2 mps 760 mmHg 19%
    14:00 +27°C° 0 mm 2 mps 760 mmHg 19%
    15:00 +27°C° 0 mm 2 mps 759 mmHg 19%
    16:00 +26°C° 0 mm 3 mps 759 mmHg 22%
    17:00 +25°C° 0 mm 3 mps 759 mmHg 24%
    18:00 +25°C° 0 mm 4 mps 759 mmHg 27%
    19:00 +23°C° 0 mm 4 mps 760 mmHg 32%
    20:00 +23°C° 0 mm 5 mps 760 mmHg 38%
    21:00 +23°C° 0 mm 5 mps 760 mmHg 43%
    22:00 +22°C° 0 mm 5 mps 760 mmHg 45%
    23:00 +22°C° 0 mm 5 mps 760 mmHg 48%

    26 January, Friday

    Time Temperature Precipitation Wind Pressure Humidity
    00:00 +22°C° 0 mm 5 mps 760 mmHg 50%
    01:00 +21°C° 0 mm 5 mps 759 mmHg 49%
    02:00 +21°C° 0 mm 4 mps 759 mmHg 48%
    03:00 +21°C° 0 mm 4 mps 759 mmHg 46%
    04:00 +21°C° 0 mm 4 mps 759 mmHg 47%
    05:00 +20°C° 0 mm 4 mps 759 mmHg 47%
    06:00 +20°C° 0 mm 4 mps 760 mmHg 48%
    07:00 +21°C° 0 mm 5 mps 760 mmHg 43%
    08:00 +22°C° 0 mm 5 mps 760 mmHg 39%
    09:00 +23°C° 0 mm 5 mps 761 mmHg 35%
    10:00 +25°C° 0 mm 5 mps 761 mmHg 30%
    11:00 +27°C° 0 mm 4 mps 760 mmHg 26%
    12:00 +28°C° 0 mm 4 mps 760 mmHg 21%
    13:00 +29°C° 0 mm 4 mps 759 mmHg 20%
    14:00 +29°C° 0 mm 4 mps 759 mmHg 20%
    15:00 +30°C° 0 mm 3 mps 758 mmHg 19%
    16:00 +29°C° 0 mm 4 mps 758 mmHg 20%
    17:00 +28°C° 0 mm 4 mps 759 mmHg 22%
    18:00 +26°C° 0 mm 4 mps 759 mmHg 24%
    19:00 +26°C° 0 mm 4 mps 759 mmHg 26%
    20:00 +25°C° 0 mm 4 mps 760 mmHg 28%
    21:00 +25°C° 0 mm 4 mps 760 mmHg 31%
    22:00 +24°C° 0 mm 3 mps 760 mmHg 31%
    23:00 +22°C° 0 mm 3 mps 760 mmHg 32%

    27 January, Saturday

    Time Temperature Precipitation Wind Pressure Humidity
    00:00 +23°C° 0 mm 2 mps 759 mmHg 33%
    01:00 +22°C° 0 mm 3 mps 759 mmHg 35%
    02:00 +22°C° 0 mm 3 mps 759 mmHg 38%
    03:00 +22°C° 0 mm 3 mps 759 mmHg 40%
    04:00 +21°C° 0 mm 3 mps 759 mmHg 44%
    05:00 +21°C° 0 mm 4 mps 760 mmHg 47%
    06:00 +21°C° 0 mm 4 mps 760 mmHg 51%
    07:00 +22°C° 0 mm 4 mps 760 mmHg 49%
    08:00 +22°C° 0 mm 4 mps 760 mmHg 48%
    09:00 +23°C° 0 mm 4 mps 761 mmHg 46%
    10:00 +25°C° 0 mm 4 mps 760 mmHg 44%
    11:00 +26°C° 0 mm 4 mps 760 mmHg 41%
    12:00 +26°C° 0 mm 4 mps 760 mmHg 39%
    13:00 +26°C° 0 mm 4 mps 759 mmHg 40%
    14:00 +26°C° 0 mm 4 mps 759 mmHg 41%
    15:00 +26°C° 0 mm 4 mps 758 mmHg 42%
    16:00 +25°C° 0 mm 5 mps 759 mmHg 47%
    17:00 +23°C° 0 mm 5 mps 759 mmHg 53%
    18:00 +22°C° 0 mm 5 mps 759 mmHg 58%
    19:00 +21°C° 0 mm 6 mps 760 mmHg 61%
    20:00 +21°C° 0 mm 7 mps 760 mmHg 63%
    21:00 +20°C° 0 mm 7 mps 760 mmHg 66%
    22:00 +20°C° 0 mm 8 mps 760 mmHg 64%
    23:00 +19°C° 0 mm 9 mps 760 mmHg 61%

    28 January, Sunday

    Time Temperature Precipitation Wind Pressure Humidity
    00:00 +19°C° 0 mm 10 mps 760 mmHg 59%
    01:00 +18°C° 0 mm 11 mps 760 mmHg 56%
    02:00 +18°C° 0 mm 12 mps 761 mmHg 54%
    03:00 +18°C° 0 mm 13 mps 761 mmHg 51%
    04:00 +17°C° 0 mm 12 mps 761 mmHg 49%
    05:00 +17°C° 0 mm 12 mps 762 mmHg 46%
    06:00 +17°C° 0 mm 12 mps 762 mmHg 43%
    07:00 +17°C° 0 mm 12 mps 763 mmHg 39%
    08:00 +18°C° 0 mm 11 mps 763 mmHg 36%
    09:00 +18°C° 0 mm 11 mps 764 mmHg 32%
    10:00 +18°C° 0 mm 11 mps 764 mmHg 32%
    11:00 +19°C° 0 mm 11 mps 763 mmHg 32%
    12:00 +19°C° 0 mm 10 mps 763 mmHg 32%
    13:00 +19°C° 0 mm 10 mps 763 mmHg 32%
    14:00 +19°C° 0 mm 10 mps 762 mmHg 32%
    15:00 +19°C° 0 mm 10 mps 762 mmHg 32%
    16:00 +18°C° 0 mm 9 mps 762 mmHg 35%
    17:00 +18°C° 0 mm 9 mps 763 mmHg 37%
    18:00 +17°C° 0 mm 9 mps 763 mmHg 40%
    19:00 +17°C° 0 mm 9 mps 763 mmHg 41%
    20:00 +17°C° 0 mm 9 mps 764 mmHg 43%
    21:00 +16°C° 0 mm 9 mps 764 mmHg 44%
    22:00 +16°C° 0 mm 9 mps 764 mmHg 44%
    23:00 +16°C° 0 mm 9 mps 764 mmHg 44%
    Show more